Погода в Хазараспе

Узбекистан     41°18′44″N   61°04′48″E
темп.,
°C
ветер,
м/с
пор.,
м/с
влажн.,
%
обл.,
%
осадки,
мм/ч
давл.,
гПа
погр.,
м
27 февраля, сб
сб2723:00−1ю5816100 0.1 1029609
02:00−1ююз6111989 0.0 1027419
05:00−1ююз6112091 0.0 1026644
08:000ююз91427100 0.1 1025537
11:00+1юз91248100 0.2 1026528
14:00+2юз81158100 0.1 1025488
17:00+3юз5959100 0.1 1024402
20:00+3ю4458100 0.0 102554
28 февраля, вс
вс2823:00+2ю455679 0.0 102541
02:00+1ю45390 0.0 102359
05:00+1ююв45320 0.0 102254
08:00+1ююв452938 0.0 102281
11:00+6ююв571953 0.0 1021308
14:00+10ююв561893 0.0 1019643
17:00+11ююв452282 0.0 1017785
20:00+8юв45336 0.0 101762
1 марта, пн
пн123:00+6юв45373 0.0 101747
02:00+5ююв34390 0.0 101731
05:00+4ююв34400 0.0 101624
08:00+3ююв34410 0.0 101723
11:00+9ю23300 0.0 1017230
14:00+14зюз34240 0.0 1017626
17:00+15з45230 0.0 1016920
20:00+11з34300 0.0 101829
2 марта, вт
вт223:00+9з34320 0.0 102026
02:00+6ссз34410 0.0 102128
05:00+3ссв46670 0.0 1022122
08:00+1ссв589019 0.0 1024234
11:00+5ссв566239 0.0 1025424
14:00+8ссв445322 0.0 1025769
17:00+9ссв345248 0.0 10241083
20:00+7св456385 0.0 1025409
3 марта, ср
ср323:00+5св346993 0.0 1025153
02:00+4св337783 0.0 102462
05:00+3всв337685 0.0 102470
08:00+3в3379100 0.0 102368
11:00+6вюв445996 0.0 1023515
14:00+9юв225061 0.0 1020869
17:00+10ююв224744 0.0 1018967
20:00+9в335146 0.0 101775